Fitchburg, MA

6:28 AM EDT on May 25, 2017 (GMT -0400)
Fitchburg Municipal

Weather History for KFIT - April, 2013

Change the Weather History Date:

Tuesday, April 30, 2013

  Actual Average (KORH) Record (KORH)
Temperature  
Mean Temperature 60 °F -  
Max Temperature 72 °F 63 °F 84 °F (1942)
Min Temperature 48 °F 41 °F 28 °F (1931)
Degree Days  
Heating Degree Days 6    
Growing Degree Days 10 (Base 50)    
Moisture  
Dew Point 25 °F    
Average Humidity 31    
Maximum Humidity 56    
Minimum Humidity 14    
Precipitation  
Precipitation 0.00 in - - ()
Sea Level Pressure  
Sea Level Pressure 30.31 in    
Wind  
Wind Speed 3 mph (SE)    
Max Wind Speed 10 mph    
Max Gust Speed -    
Visibility 10 miles    
Events      
Averages and records for this station are not official NWS values.
T = Trace of Precipitation, MM = Missing Value Source: NWS Daily Summary

Daily Weather History Graph

Daily Weather History Graph

Search for Another Location

Airport or City:

Trip Planner

Search our weather history database for the weather conditions in past years. The results will help you decide how hot, cold, wet, or windy it might be!

Date:

Astronomy

Apr. 30, 2013 Rise Set
Actual Time 5:42 AM EDT 7:46 PM EDT
Civil Twilight 5:12 AM EDT 8:16 PM EDT
Nautical Twilight 4:34 AM EDT 8:54 PM EDT
Astronomical Twilight 3:53 AM EDT 9:36 PM EDT
Moon 12:08 AM EDT (4/30) 10:06 AM EDT (4/30)
Length of Visible Light 15h 04m
Length of Day
14h 03m
Waning Gibbous, 70% of the Moon is Illuminated
Apr 30
Waning Gibbous
May 2
Last Quarter
May 9
New
May 18
First Quarter
May 25
Full

Hourly Weather History & Observations

Time (EDT) Temp. Dew Point Humidity Pressure Visibility Wind Dir Wind Speed Gust Speed Precip Events Conditions
12:52 AM 55.0 °F 23.0 °F 29% 30.26 in 10.0 mi SSW 3.5 mph - N/A   Mostly Cloudy
1:52 AM 53.1 °F 27.0 °F 37% 30.26 in 10.0 mi Calm Calm - N/A   Overcast
2:52 AM 51.1 °F 30.9 °F 46% 30.26 in 10.0 mi Calm Calm - N/A   Partly Cloudy
3:52 AM 50.0 °F 33.1 °F 52% 30.27 in 10.0 mi Calm Calm - N/A   Overcast
4:52 AM 51.1 °F 32.0 °F 48% 30.28 in 10.0 mi Calm Calm - N/A   Overcast
5:52 AM 50.0 °F 33.1 °F 52% 30.29 in 10.0 mi Calm Calm - N/A   Partly Cloudy
6:52 AM 48.0 °F 33.1 °F 56% 30.31 in 10.0 mi Calm Calm - N/A   Clear
7:52 AM 53.1 °F 35.1 °F 50% 30.33 in 10.0 mi Calm Calm - N/A   Clear
8:52 AM 57.9 °F 27.0 °F 31% 30.33 in 10.0 mi East 3.5 mph - N/A   Clear
9:52 AM 61.0 °F 21.0 °F 21% 30.33 in 10.0 mi Variable 6.9 mph - N/A   Clear
10:52 AM 64.0 °F 14.0 °F 14% 30.33 in 10.0 mi Variable 4.6 mph - N/A   Clear
11:52 AM 66.9 °F 18.0 °F 15% 30.31 in 10.0 mi Variable 5.8 mph - N/A   Clear
12:52 PM 68.0 °F 23.0 °F 18% 30.30 in 10.0 mi Calm Calm - N/A   Clear
1:52 PM 70.0 °F 21.9 °F 16% 30.29 in 10.0 mi Variable 3.5 mph - N/A   Clear
3:52 PM 71.1 °F 21.0 °F 15% 30.28 in 10.0 mi South 6.9 mph - N/A   Clear
4:52 PM 71.1 °F 21.9 °F 16% 30.27 in 9.0 mi SE 4.6 mph - N/A   Clear
5:52 PM 70.0 °F 21.9 °F 16% 30.30 in 10.0 mi ESE 10.4 mph - N/A   Clear
6:52 PM 66.9 °F 19.9 °F 17% 30.31 in 10.0 mi SE 9.2 mph - N/A   Clear
7:52 PM 63.0 °F 19.9 °F 19% 30.33 in 10.0 mi ESE 5.8 mph - N/A   Clear
8:52 PM 60.1 °F 19.9 °F 21% 30.34 in 10.0 mi ESE 4.6 mph - N/A   Clear
9:52 PM 54.0 °F 26.1 °F 34% 30.35 in 10.0 mi Calm Calm - N/A   Clear
10:52 PM 51.1 °F 28.9 °F 43% 30.36 in 10.0 mi Calm Calm - N/A   Clear
11:52 PM 48.0 °F 30.0 °F 50% 30.37 in 10.0 mi Calm Calm - N/A   Clear